Tracking 19250 objects as of 24-Sep-2018
HD Live streaming from Space Station
objects crossing your sky now

FENGYUN 1C DEB

Track FENGYUN 1C DEB now!
10-day predictions


NORAD ID: 31487
Int'l Code: 1999-025BWB
Perigee: 844.3 km
Apogee: 1,036.0 km
Inclination: 102.4 °
Period: 103.7 minutes
Semi major axis: 7311 km
RCS: 0.0135 m2 (small)
Launch date: May 10, 1999
Source: People's Republic of China (PRC)
Launch site: Taiyaun Space Center, China (TSC)

Note: This is SATELLITE DEBRIS
aabbcc
Your satellite tracking list
Your tracking list is empty




NASA's NSSDC Master Catalog

Two Line Element Set (TLE):
1 31487U 99025BWB 18266.40785824 +.00000457 +00000-0 +40804-3 0  9994
2 31487 102.4240 236.5024 0131088 120.5537 032.8441 13.88743450577345
Source of the keplerian elements: AFSPC